Home > Weather > Mansfield > Past weeks

Flag for USA Past Weather in Mansfield, Texas, USA — Yesterday and Last 2 Weeks

Now
72 °F

Sunny.


Feels Like: 71 °F
Forecast: 71 / 83 °F
Wind: 12 mph from Southeast

Location: Burleson-Rendon

Current Time: May 26, 2016 at 9:28:07 PM

Latest Report: May 26, 2016 at 8:55 PM


Visibility: 7 mi

Pressure: 29.78 "Hg

Humidity: 85%

Dew Point: 67 °F

Location of MansfieldLocation

Past Weather in Mansfield — Graph

°F

Mansfield Temperature Yesterday

Maximum temperature yesterday: 84 °F (at 3:47 PM)
Minimum temperature yesterday: 75 °F (at 6:53 AM)
Average temperature yesterday: 79 °F

High & Low Weather Summary for the Past Weeks

 TemperatureHumidityPressure
High84 °F (May 13, 3:52 PM)97% (May 19, 5:15 AM)30.24 "Hg (May 19, 5:15 AM)
Low55 °F (May 15, 1:55 AM)40% (May 13, 3:52 PM)29.77 "Hg (May 26, 8:15 PM)
Average70 °F80%30.02 "Hg
* Reported May 11 8:15 PM — May 26 8:15 PM, Mansfield, Weather by CustomWeather, © 2016

Note: Actual official high and low records may vary slightly from our data, if they occured in-between our weather recording intervals... More about our weather records

Advertising

Mansfield Weather History for the Previous 24 Hours

Scroll right to see more
 ConditionsComfort  
Time TempWeatherWind HumidityBarometerVisibility
8:15 PM
Thu, May 26
73 °FSunny.8 mph82%29.77 "Hg7 mi
7:50 PM74 °FSunny.13 mph78%29.79 "Hg4 mi
6:53 PM77 °FPassing clouds.14 mph69%29.79 "Hg10 mi
5:46 PM79 °FPassing clouds.18 mph70%29.79 "Hg10 mi
4:48 PM77 °FPassing clouds.16 mph74%29.83 "Hg10 mi
3:48 PM77 °FScattered clouds.24 mph69%29.84 "Hg10 mi
2:52 PM75 °FSunny.16 mph74%29.86 "Hg10 mi
1:50 PM75 °FSunny.12 mph69%29.88 "Hg10 mi
12:47 PM77 °FSunny.7 mph69%29.89 "Hg10 mi
11:52 AM75 °FPartly sunny.12 mph74%29.89 "Hg10 mi
10:47 AM73 °FPartly sunny.13 mph78%29.91 "Hg10 mi
9:54 AM75 °FThundershowers. Broken clouds.17 mph89%29.89 "Hg7 mi
8:50 AM75 °FLight rain. Mostly cloudy.18 mph89%29.94 "Hg7 mi
7:51 AM77 °FLight rain. Overcast.15 mph89%29.93 "Hg5 mi
6:47 AM77 °FFog.14 mph83%29.94 "Hg5 mi
6:35 AM77 °FOvercast.15 mph87%29.94 "Hg4 mi
6:15 AM77 °FPassing clouds.13 mph86%29.94 "Hg5 mi
5:55 AM77 °FOvercast.16 mph85%29.94 "Hg5 mi
5:15 AM77 °FOvercast.13 mph86%29.94 "Hg5 mi
4:55 AM77 °FFog.9 mph86%29.93 "Hg5 mi
4:35 AM77 °FFog.12 mph86%29.92 "Hg5 mi
4:15 AM78 °FOvercast.12 mph85%29.93 "Hg5 mi
3:55 AM78 °FOvercast.10 mph85%29.93 "Hg5 mi
3:35 AM78 °FOvercast.9 mph85%29.92 "Hg5 mi
3:15 AM77 °FFog.13 mph86%29.93 "Hg5 mi
2:55 AM77 °FOvercast.9 mph87%29.94 "Hg5 mi
2:35 AM77 °FFog.8 mph87%29.93 "Hg5 mi
2:15 AM77 °FClear.9 mph87%29.93 "Hg7 mi
1:55 AM77 °FClear.9 mph87%29.92 "Hg5 mi
1:15 AM77 °FFog.9 mph86%29.94 "Hg5 mi
12:55 AM78 °FClear.10 mph86%29.95 "Hg7 mi
12:35 AM78 °FClear.10 mph85%29.95 "Hg5 mi
12:15 AM79 °FClear.15 mph84%29.95 "Hg7 mi
11:55 PM
Wed, May 25
79 °FPassing clouds.13 mph83%29.95 "Hg5 mi
11:35 PM80 °FClear.15 mph83%29.96 "Hg7 mi
11:15 PM80 °FPassing clouds.15 mph81%29.96 "Hg5 mi
10:55 PM80 °FPassing clouds.14 mph81%29.97 "Hg5 mi
10:15 PM80 °FPassing clouds.12 mph81%29.96 "Hg5 mi
9:55 PM80 °FClear.12 mph82%29.95 "Hg5 mi
9:15 PM81 °FScattered clouds.8 mph81%29.94 "Hg5 mi
Weather by CustomWeather, © 2016

See weather overviewHow to use our weather pages